Regional Weather Roundup
Issued by NWS

Home | Current Version | Previous Version | Text Only | Print | Product List | Glossary On
Versions: 1 2 3 4 5 6 7 8 9 10 11 12 13 14 15 16 17 18 19 20 21 22 23 24 25 26 27 28 29 30 31 32 33 34 35 36 37 38 39 40 41 42 43 44 45 46 47 48 49 50
000
ASUS45 KPSR 211410
RWRAZ

ARIZONA HOURLY REGIONAL WEATHER ROUNDUP
NATIONAL WEATHER SERVICE PHOENIX AZ
700 AM MST SAT APR 21 2018

NOTE: FAIR INDICATES FEW OR NO CLOUDS BELOW 12,000 FEET WITH NO
SIGNIFICANT WEATHER AND/OR OBSTRUCTIONS TO VISIBILITY.

AZZ001>003-036-211500-
NORTHWEST ARIZONA

CITY           SKY/WX    TMP DP  RH WIND       PRES   REMARKS
BULLHEAD CITY  SUNNY     63  28  27 CALM      30.06R
KINGMAN        SUNNY     50  24  36 SE5       30.16R
$$

AZZ004>008-015-016-018-211500-
NORTH CENTRAL ARIZONA

CITY           SKY/WX    TMP DP  RH WIND       PRES   REMARKS
GRAND CANYON   SUNNY     28  25  88 CALM      30.24R
WILLIAMS       SUNNY     32  25  74 S7        30.22R WCI  26
PRESCOTT       SUNNY     41  28  60 SW7       30.21R
FLAGSTAFF      SUNNY     30  26  85 SW5       30.23R WCI  25
PAYSON         SUNNY     41  23  48 CALM      30.18S
PAGE           SUNNY     46  40  79 CALM      30.17R
$$

AZZ009>014-017-211500-
NORTHEAST ARIZONA

CITY           SKY/WX    TMP DP  RH WIND       PRES   REMARKS
WINSLOW        SUNNY     34  31  88 SE6       30.21R WCI  29
SAINT JOHNS    SUNNY     39  34  82 SW6       30.18S WCI  35
WINDOW ROCK    MOSUNNY   37  31  78 CALM      30.17R
SHOW LOW       SUNNY     34  30  86 CALM      30.22S
$$

AZZ540-542>544-546-548-211500-
GREATER PHOENIX AREA

CITY           SKY/WX    TMP DP  RH WIND       PRES   REMARKS
PHOENIX        MOSUNNY   63  34  33 E5        30.05R
BUCKEYE        SUNNY     57  27  30 CALM      30.06R
GLENDALE       SUNNY     57  34  41 CALM      30.08
LUKE AFB       SUNNY     60  35  39 CALM      30.06R
DEER VALLEY    SUNNY     59  31  34 CALM      30.06R
SCOTTSDALE     SUNNY     58  36  43 S3        30.07R
MESA-FALCON    SUNNY     61  30  31 N12       30.07R
MESA-GATEWAY   SUNNY     55  30  38 SE6       30.08R
CHANDLER       SUNNY     59  32  36 E5        30.07R
$$

AZZ539-553-211500-
SOUTHWEST MARICOPA COUNTY AND PINAL COUNTY

CITY           SKY/WX    TMP DP  RH WIND       PRES   REMARKS
CASA GRANDE    SUNNY     56  28  34 N7        30.09R
GILA BEND      FAIR      60  24  25 E3        30.05R
$$

AZZ503-504-507>509-211500-
SOUTHEAST ARIZONA

CITY           SKY/WX    TMP DP  RH WIND       PRES   REMARKS
TUCSON         SUNNY     54  26  34 S7        30.12R
DAVIS-MONTHAN  SUNNY     54  25  33 S7        30.10R
RYAN FIELD     SUNNY     52  27  37 CALM      30.12R
NOGALES        MOSUNNY   52  26  36 N6        30.13R
SIERRA VISTA   MOSUNNY   55  26  32 CALM      30.17S
DOUGLAS        MOSUNNY   44  22  41 CALM      30.16R
SAFFORD        SUNNY     53  26  35 CALM      30.12R
$$

AZZ532-211500-
SOUTHWEST ARIZONA

CITY           SKY/WX    TMP DP  RH WIND       PRES   REMARKS
YUMA           MOSUNNY   62  42  47 E3        30.02R
$$

CAZ041-043-047-048-061-525>527-560>570-211500-
SOUTHERN CALIFORNIA

CITY           SKY/WX    TMP DP  RH WIND       PRES   REMARKS
DOWNTOWN L.A.  CLEAR     54  51  90 CALM      30.06R
L.A. AIRPORT   PTCLDY    53  53 100 N3        30.06S FOG
SAN DIEGO      PTCLDY    57  50  77 CALM      30.07S
BURBANK        CLEAR     54  47  77 SW5       30.05S
ONTARIO        CLEAR     53  43  68 CALM      30.06R
RIVERSIDE      CLEAR     50  42  74 CALM      30.06S
PALM SPRINGS   CLEAR     66  33  29 N8        30.03R
EL CENTRO NAS  MOSUNNY   61  31  32 W6        30.02R
IMPERIAL       SUNNY     59  38  45 CALM      30.00R
BLYTHE         SUNNY     60  32  34 N6        30.03R
NEEDLES        SUNNY     66  27  23 W3        30.07R
$$

NVZ020-UTZ003-211500-
SOUTHERN NEVADA-UTAH

CITY           SKY/WX    TMP DP  RH WIND       PRES   REMARKS
LAS VEGAS      SUNNY     59  32  36 S7        30.12R
SALT LAKE CITY SUNNY     48  37  65 SE7       30.20R
$$

NMZ009-TXZ055-211500-
NEW MEXICO-WEST TEXAS

CITY           SKY/WX    TMP DP  RH WIND       PRES   REMARKS
ALBUQUERQUE    PTSUNNY   39  30  70 SE6       30.13R WCI  35
EL PASO        MOSUNNY   55  28  35 N6        30.09R
$$


........................KEY........................
SKY/WX - SKY CONDITION/WEATHER
TMP    - TEMPERATURE IN FAHRENHEIT
DP     - DEW POINT IN FAHRENHEIT
RH     - RELATIVE HUMIDITY IN PERCENT
WIND   - DIRECTION AND SPEED IN MILES PER HOUR (MPH)
VRB    - VARIABLE WIND DIRECTION
PRES   - MEAN SEA LEVEL PRESSURE IN INCHES OF MERCURY
         F - FALLING PRESSURE   R - RISING PRESSURE
         S - STEADY PRESSURE
VSB    - VISIBILITY IN MILES
HX     - HEAT INDEX IN FAHRENHEIT
WCI    - WIND CHILL INDEX IN FAHRENHEIT
TC     - TEMPERATURE IN CELSIUS WHICH IS ALSO KNOWN AS
         TEMPERATURE IN CENTIGRADE
AFB    - AIR FORCE BASE
         LUKE AFB IS LUKE AIR FORCE BASE
         DAVIS-MONTHAN IS DAVIS-MONTHAN AIR FORCE BASE
NAS    - NAVAL AIR STATION
         EL CENTRO NAS IS EL CENTRO NAVAL AIR STATION
N/A    - NOT AVAILABLE




USA.gov is the U.S. government's official web portal to all federal, state and local government web resources and services.